Dallas/Ft Worth, TX

10:39 AM CDT on May 25, 2018 (GMT -0500)
Dallas-Fort Worth International

Weather History for KDFW - June, 2014

Change the Weather History Date:

Wednesday, June 11, 2014

  Actual Average Record
Temperature  
Mean Temperature 80 °F 81 °F  
Max Temperature 95 °F 91 °F 103 °F (1911)
Min Temperature 65 °F 71 °F 55 °F (1979)
Degree Days  
Heating Degree Days 0 0  
Month to date heating degree days 0 0  
Since 1 June heating degree days 0 0  
Since 1 July heating degree days 2603 2284  
Cooling Degree Days 15 16  
Month to date cooling degree days 184 160  
Year to date cooling degree days 660 582  
Since 1 June cooling degree days 184 160  
Growing Degree Days 30 (Base 50)    
Moisture  
Dew Point 62 °F    
Average Humidity 59    
Maximum Humidity 87    
Minimum Humidity 30    
Precipitation  
Precipitation 0.00 in 0.13 in 2.70 in (2009)
Month to date precipitation 0.88 1.55  
Year to date precipitation 8.21 17.80  
Sea Level Pressure  
Sea Level Pressure 29.82 in    
Wind  
Wind Speed 10 mph (SSW)    
Max Wind Speed 20 mph    
Max Gust Speed 25 mph    
Visibility 10 miles    
Events      
T = Trace of Precipitation, MM = Missing Value Source: NWS Daily Summary

Daily Weather History Graph

Daily Weather History Graph

Search for Another Location

Airport or City:

Astronomy

Jun. 11, 2014 Rise Set
Actual Time 6:19 AM CDT 8:36 PM CDT
Civil Twilight 5:50 AM CDT 9:05 PM CDT
Nautical Twilight 5:15 AM CDT 9:40 PM CDT
Astronomical Twilight 4:37 AM CDT 10:18 PM CDT
Moon 7:12 PM CDT (6/11) 5:03 AM CDT (6/11)
Length of Visible Light 15h 14m
Length of Day
14h 17m
Waxing Gibbous, 97% of the Moon is Illuminated
Jun 11
Waxing Gibbous
Jun 12
Full
Jun 19
Last Quarter
Jun 27
New
Jul 5
First Quarter

Hourly Weather History & Observations

Time (CDT) Temp. Heat Index Dew Point Humidity Pressure Visibility Wind Dir Wind Speed Gust Speed Precip Events Conditions
12:53 AM 73.0 °F - 61.0 °F 66% 29.85 in 10.0 mi NW 3.5 mph - N/A   Clear
1:53 AM 71.1 °F - 61.0 °F 70% 29.83 in 10.0 mi Calm Calm - N/A   Clear
2:53 AM 69.1 °F - 62.1 °F 78% 29.83 in 10.0 mi SW 6.9 mph - N/A   Clear
3:53 AM 69.1 °F - 61.0 °F 75% 29.83 in 10.0 mi SW 5.8 mph - N/A   Clear
4:53 AM 70.0 °F - 61.0 °F 73% 29.83 in 10.0 mi WSW 5.8 mph - N/A   Clear
5:53 AM 64.9 °F - 60.1 °F 84% 29.84 in 10.0 mi South 5.8 mph - N/A   Clear
6:53 AM 66.9 °F - 62.1 °F 84% 29.86 in 10.0 mi SW 4.6 mph - N/A   Clear
7:53 AM 72.0 °F - 63.0 °F 73% 29.87 in 10.0 mi SW 6.9 mph - N/A   Clear
8:53 AM 77.0 °F - 63.0 °F 62% 29.88 in 10.0 mi SSW 9.2 mph - N/A   Clear
9:53 AM 81.0 °F 82.2 °F 63.0 °F 54% 29.88 in 10.0 mi SSW 8.1 mph - N/A   Clear
10:53 AM 84.9 °F 85.9 °F 63.0 °F 48% 29.87 in 10.0 mi SSW 13.8 mph 21.9 mph N/A   Clear
11:53 AM 87.1 °F 87.5 °F 62.1 °F 43% 29.86 in 10.0 mi South 13.8 mph - N/A   Clear
12:53 PM 89.1 °F 89.0 °F 61.0 °F 39% 29.84 in 10.0 mi South 4.6 mph - N/A   Clear
1:53 PM 91.0 °F 90.9 °F 61.0 °F 36% 29.82 in 10.0 mi South 10.4 mph 19.6 mph N/A   Clear
2:53 PM 93.2 °F 93.3 °F 60.8 °F 34% 29.83 in 10.0 mi South 13.8 mph - N/A   Clear
3:53 PM 93.9 °F 92.9 °F 57.9 °F 30% 29.78 in 10.0 mi South 13.8 mph - N/A   Clear
4:53 PM 93.9 °F 94.0 °F 61.0 °F 33% 29.77 in 10.0 mi SSE 15.0 mph - N/A   Clear
5:53 PM 93.0 °F 93.0 °F 61.0 °F 34% 29.74 in 10.0 mi South 17.3 mph - N/A   Partly Cloudy
6:53 PM 91.0 °F 91.5 °F 62.1 °F 38% 29.73 in 10.0 mi SSE 16.1 mph - N/A   Partly Cloudy
7:53 PM 89.1 °F 89.3 °F 62.1 °F 40% 29.72 in 10.0 mi SSE 11.5 mph 20.7 mph N/A   Partly Cloudy
8:53 PM 86.0 °F 86.8 °F 63.0 °F 46% 29.77 in 10.0 mi South 11.5 mph - N/A   Partly Cloudy
9:53 PM 84.9 °F 86.6 °F 64.9 °F 51% 29.79 in 10.0 mi South 11.5 mph - N/A   Mostly Cloudy
10:53 PM 84.0 °F 86.3 °F 66.0 °F 55% 29.78 in 10.0 mi South 13.8 mph - N/A   Overcast
11:53 PM 82.9 °F 85.8 °F 68.0 °F 60% 29.75 in 10.0 mi SSE 13.8 mph - N/A   Mostly Cloudy